Henderson, NV

4:05 AM PDT on October 20, 2017 (GMT -0700)
Henderson

Weather History for KHND - April, 2013

Change the Weather History Date:

Thursday, April 11, 2013

  Actual Average (KLAS) Record (KLAS)
Temperature  
Mean Temperature 64 °F -  
Max Temperature 79 °F 77 °F 92 °F (2014)
Min Temperature 50 °F 53 °F 35 °F (1965)
Growing Degree Days 14 (Base 50)    
Moisture  
Dew Point 20 °F    
Average Humidity 19    
Maximum Humidity 28    
Minimum Humidity 12    
Precipitation  
Precipitation 0.00 in - - ()
Sea Level Pressure  
Sea Level Pressure 29.83 in    
Wind  
Wind Speed 4 mph (South)    
Max Wind Speed 9 mph    
Max Gust Speed -    
Visibility 10 miles    
Events      
Averages and records for this station are not official NWS values.
T = Trace of Precipitation, MM = Missing Value Source: NWS Daily Summary

Daily Weather History Graph

Daily Weather History Graph

Search for Another Location

Airport or City:

Trip Planner

Search our weather history database for the weather conditions in past years. The results will help you decide how hot, cold, wet, or windy it might be!

Date:

Astronomy

Apr. 11, 2013 Rise Set
Actual Time 6:12 AM PDT 7:11 PM PDT
Civil Twilight 5:46 AM PDT 7:37 PM PDT
Nautical Twilight 5:15 AM PDT 8:08 PM PDT
Astronomical Twilight 4:43 AM PDT 8:40 PM PDT
Moon 6:49 AM PDT (4/11) 8:45 PM PDT (4/11)
Length of Visible Light 13h 51m
Length of Day
12h 58m
New Moon, 2% of the Moon is Illuminated
Apr 11
New Moon
Apr 18
First Quarter
Apr 25
Full
May 2
Last Quarter
May 9
New

Hourly Weather History & Observations

Time (PDT) Temp. Dew Point Humidity Pressure Visibility Wind Dir Wind Speed Gust Speed Precip Events Conditions
12:56 AM 54.9 °F 17.1 °F 23% 29.94 in 10.0 mi South 6.9 mph - N/A   Clear
1:56 AM 54.0 °F 17.1 °F 23% 29.93 in 10.0 mi SSE 6.9 mph - N/A   Clear
2:56 AM 52.0 °F 18.1 °F 26% 29.90 in 10.0 mi SSE 8.1 mph - N/A   Clear
3:56 AM 50.9 °F 14.0 °F 23% 29.88 in 10.0 mi South 9.2 mph - N/A   Clear
4:56 AM 52.0 °F 17.1 °F 25% 29.87 in 10.0 mi South 4.6 mph - N/A   Clear
5:56 AM 50.9 °F 18.1 °F 27% 29.86 in 10.0 mi Calm Calm - N/A   Clear
6:56 AM 52.9 °F 18.1 °F 26% 29.87 in 10.0 mi South 4.6 mph - N/A   Clear
7:56 AM 55.9 °F 23.0 °F 28% 29.88 in 10.0 mi Calm Calm - N/A   Clear
8:56 AM 59.0 °F 20.1 °F 22% 29.89 in 10.0 mi Calm Calm - N/A   Clear
9:56 AM 61.9 °F 21.0 °F 21% 29.91 in 10.0 mi North 4.6 mph - N/A   Clear
10:56 AM 65.8 °F 21.0 °F 18% 29.89 in 10.0 mi North 3.5 mph - N/A   Partly Cloudy
11:56 AM 65.8 °F 19.0 °F 17% 29.89 in 10.0 mi Calm Calm - N/A   Clear
12:56 PM 70.0 °F 19.0 °F 14% 29.85 in 10.0 mi WSW 5.8 mph - N/A   Clear
1:56 PM 72.9 °F 18.1 °F 13% 29.83 in 10.0 mi Calm Calm - N/A   Partly Cloudy
2:56 PM 77.0 °F 20.1 °F 12% 29.79 in 10.0 mi Variable 3.5 mph - N/A   Clear
3:56 PM 79.0 °F 22.1 °F 12% 29.75 in 10.0 mi North 4.6 mph - N/A   Clear
4:56 PM 78.8 °F 21.2 °F 12% 29.76 in 10.0 mi SW 3.5 mph - N/A   Clear
5:56 PM 79.0 °F 21.0 °F 12% 29.72 in 10.0 mi Calm Calm - N/A   Clear
6:56 PM 75.9 °F 21.0 °F 13% 29.72 in 10.0 mi Calm Calm - N/A   Clear
7:56 PM 72.0 °F 23.0 °F 16% 29.73 in 10.0 mi Calm Calm - N/A   Clear
8:56 PM 70.0 °F 20.1 °F 15% 29.74 in 10.0 mi Calm Calm - N/A   Clear
9:56 PM 65.8 °F 20.1 °F 17% 29.76 in 10.0 mi Calm Calm - N/A   Clear
10:56 PM 61.9 °F 21.0 °F 21% 29.76 in 10.0 mi Calm Calm - N/A   Clear
11:56 PM 59.9 °F 25.2 °F 26% 29.77 in 10.0 mi Calm Calm - N/A   Clear